Find Starlink 30227

NORAD ID: 57505 Int'l Des: 2023-113 Owner: SPXS Country: US Constellation: starlink operational
LEOCIRCULAR

現在のビュー

3D地球を読み込み中...

About Starlink 30227

Starlink 30227 (NORAD 57505) is a starlink constellation satellite (v2 mini) launched Aug 7, 2023 by SPXS of US. It operates in LEO, CIRCULAR orbit with a mass of 730.00 kg.

Starlink 30227について

説明を読み込み中...

次回通過

Passes for default location (London). Set your location on the main map for personalized predictions.

高度履歴

Loading altitude history...

軌道要素

1 57505U 23113L 26175.16425349 .00035304 00000-0 13424-2 0 9998
2 57505 42.9958 125.6393 0009447 153.6657 206.4676 15.26134522160062
Epoch: Jun 24, 2026 • Age: 11 hours

現在のステータス

高度 485.8 km
速度 7.63 km/s
衛星直下点 41.01°N, 91.1°E
打ち上げ日 Aug 7, 2023
運用期間 2.8 years
タイプ internet

技術仕様

分類 Payload
質量 730.00 kg
乾燥質量 700.00 kg
総質量 730.00 kg
長さ 0.30 m
直径 4.10 m
スパン 29.00 m
形状 Box + pan
製造者 SPXS
バスタイプ Starlink V2M
フェーズステータス In Orbit
所有者/国 SPXS/US

Most Searched